Location: Ponte Samoggia
(44.5667°N, 11.1333°E)
Time: 21:42:50
(UTC+00:00)

Cosmos 332 Rocket - Pass Details

Date: 26 May 2022
Orbit: 681 x 703 km, 74.0° (Epoch: 29 June)

Event Time Altitude Azimuth Distance (km) Brightness Sun altitude
Exits shadow 00:28:26 58° 174° (S) 794 3.7 -22.1°
Maximum altitude 00:29:17 76° 109° (ESE) 706 3.7 -22.0°
Drops below altitude 10° 00:34:05 10° 24° (NNE) 2,132 7.5 -21.7°
Sets 00:36:23 0° 23° (NNE) 3,052 8.7 -21.6°
